Вернуться в каталог

STARLINK-2634

АктивенСвязьVLEO
NORAD 48445·PAYLOAD·🇺🇸 United States

Запущен May 9, 2021 с Cape Canaveral Space Force Station

Loading…

Ближайшие Пролёты (ближайшие 24 часа)

TLE

СвежийSource: CelesTrak SupGP

Эпоха: Sep 14, 2026, 19:46 UTC

1 48445C 21040T   26257.82409722  .00041125  00000+0  13223-2 0  2570
2 48445  53.1590  17.9298 0001081  87.5611 223.2535 15.31684299    15

Отслеживайте STARLINK-2634 в реальном времени с AllMySat

Download on the App Store